| time (UTC) | temp F | wind direction | speed MPH | gust MPH | rain 1hr in | rain 24hr in | rain mn in | humidity % | barometer mb |
| 20260507010057 | 80 | 174 | 6.0 | 9.0 | 0.00 | 0.00 | 0.00 | 89 | 1010.8 |
| 20260507004517 | 81 | 150 | 5.0 | 7.0 | 0.00 | 0.00 | 0.00 | 89 | 1010.6 |
| 20260507003006 | 81 | 146 | 6.0 | 10.0 | 0.00 | 0.00 | 0.00 | 89 | 1010.5 |
| 20260507001513 | 81 | 164 | 4.0 | 7.0 | 0.00 | 0.00 | 0.00 | 89 | 1010.5 |
| 20260507000024 | 81 | 145 | 5.0 | 8.0 | 0.00 | 0.00 | 0.00 | 88 | 1010.4 |
| 20260506234534 | 82 | 142 | 7.0 | 10.0 | 0.00 | 0.00 | 0.00 | 88 | 1010.2 |
| 20260506233025 | 82 | 144 | 6.0 | 12.0 | 0.00 | 0.00 | 0.00 | 88 | 1010.1 |
| 20260506231534 | 82 | 161 | 8.0 | 11.0 | 0.00 | 0.00 | 0.00 | 88 | 1010.2 |
| 20260506230032 | 82 | 157 | 6.0 | 12.0 | 0.00 | 0.00 | 0.00 | 88 | 1010.1 |
| 20260506224532 | 82 | 164 | 6.0 | 15.0 | 0.00 | 0.00 | 0.00 | 88 | 1010.0 |
| 20260506223046 | 82 | 192 | 6.0 | 18.0 | 0.00 | 0.00 | 0.00 | 87 | 1009.9 |
| 20260506221536 | 83 | 180 | 7.0 | 15.0 | 0.00 | 0.00 | 0.00 | 87 | 1009.8 |
| 20260506220039 | 84 | 155 | 8.0 | 13.0 | 0.00 | 0.00 | 0.00 | 86 | 1009.7 |
| 20260506214549 | 84 | 184 | 5.0 | 12.0 | 0.00 | 0.00 | 0.00 | 87 | 1009.8 |
| 20260506213113 | 84 | 153 | 6.0 | 10.0 | 0.00 | 0.00 | 0.00 | 86 | 1009.9 |
| 20260506211510 | 84 | 184 | 3.0 | 9.0 | 0.00 | 0.00 | 0.00 | 87 | 1010.0 |
| 20260506210010 | 84 | 135 | 6.0 | 9.0 | 0.00 | 0.00 | 0.00 | 87 | 1009.9 |
| 20260506204515 | 84 | 188 | 5.0 | 12.0 | 0.00 | 0.00 | 0.00 | 87 | 1010.1 |
| 20260506203022 | 84 | 150 | 8.0 | 12.0 | 0.00 | 0.00 | 0.00 | 87 | 1010.1 |
| 20260506201531 | 83 | 136 | 8.0 | 11.0 | 0.00 | 0.00 | 0.00 | 88 | 1010.3 |
| 20260506200021 | 83 | 146 | 6.0 | 13.0 | 0.00 | 0.00 | 0.00 | 88 | 1010.4 |
| 20260506194528 | 83 | 234 | 7.0 | 15.0 | 0.00 | 0.00 | 0.00 | 89 | 1010.5 |
| 20260506193026 | 82 | 176 | 7.0 | 12.0 | 0.00 | 0.00 | 0.00 | 89 | 1010.8 |
| 20260506191540 | 82 | 174 | 10.0 | 16.0 | 0.00 | 0.00 | 0.00 | 88 | 1010.8 |
| 20260506190036 | 82 | 140 | 9.0 | 13.0 | 0.00 | 0.00 | 0.00 | 89 | 1011.1 |
| 20260506184538 | 82 | 198 | 5.0 | 10.0 | 0.00 | 0.00 | 0.00 | 90 | 1011.3 |
| 20260506183057 | 82 | 180 | 7.0 | 13.0 | 0.00 | 0.00 | 0.00 | 89 | 1011.4 |
| 20260506181542 | 82 | 159 | 5.0 | 11.0 | 0.00 | 0.00 | 0.00 | 90 | 1011.7 |
| 20260506180053 | 81 | 148 | 7.0 | 10.0 | 0.00 | 0.00 | 0.00 | 90 | 1011.9 |
| 20260506174550 | 81 | 145 | 5.0 | 11.0 | 0.00 | 0.00 | 0.00 | 91 | 1012.0 |
| 20260506173058 | 80 | 165 | 4.0 | 9.0 | 0.00 | 0.00 | 0.00 | 92 | 1012.1 |
| 20260506171502 | 79 | 150 | 7.0 | 10.0 | 0.00 | 0.00 | 0.00 | 92 | 1012.2 |
| 20260506170114 | 79 | 192 | 5.0 | 11.0 | 0.00 | 0.00 | 0.00 | 92 | 1012.5 |
| 20260506164542 | 79 | 170 | 6.0 | 11.0 | 0.00 | 0.00 | 0.00 | 92 | 1012.3 |
| 20260506163046 | 78 | 130 | 8.0 | 11.0 | 0.00 | 0.00 | 0.00 | 93 | 1012.1 |
| 20260506161542 | 78 | 140 | 6.0 | 11.0 | 0.00 | 0.00 | 0.00 | 93 | 1012.0 |
| 20260506160043 | 78 | 135 | 6.0 | 8.0 | 0.00 | 0.00 | 0.00 | 93 | 1012.1 |
| 20260506154550 | 78 | 125 | 6.0 | 9.0 | 0.00 | 0.00 | 0.00 | 93 | 1012.0 |
| 20260506153050 | 77 | 128 | 7.0 | 9.0 | 0.00 | 0.00 | 0.00 | 93 | 1011.8 |
| 20260506151550 | 77 | 156 | 7.0 | 10.0 | 0.00 | 0.00 | 0.00 | 93 | 1011.8 |
| 20260506150100 | 77 | 150 | 6.0 | 10.0 | 0.00 | 0.00 | 0.00 | 93 | 1011.5 |
| 20260506144607 | 77 | 128 | 7.0 | 11.0 | 0.00 | 0.00 | 0.00 | 93 | 1011.1 |
| 20260506144501 | 77 | 119 | 6.0 | 11.0 | 0.00 | 0.00 | 0.00 | 93 | 1011.0 |
| 20260506143015 | 77 | 136 | 7.0 | 9.0 | 0.00 | 0.00 | 0.00 | 93 | 1011.0 |
| 20260506141510 | 77 | 144 | 6.0 | 10.0 | 0.00 | 0.00 | 0.00 | 93 | 1011.2 |
| 20260506140007 | 77 | 136 | 6.0 | 8.0 | 0.00 | 0.00 | 0.00 | 93 | 1011.2 |
| 20260506134512 | 76 | 119 | 6.0 | 9.0 | 0.00 | 0.00 | 0.00 | 93 | 1011.3 |
| 20260506133012 | 76 | 146 | 5.0 | 9.0 | 0.00 | 0.00 | 0.00 | 93 | 1011.2 |
| 20260506131515 | 76 | 132 | 6.0 | 9.0 | 0.00 | 0.00 | 0.00 | 93 | 1011.3 |
| 20260506130021 | 75 | 137 | 6.0 | 9.0 | 0.00 | 0.00 | 0.00 | 93 | 1011.2 |
| 20260506124525 | 75 | 132 | 6.0 | 8.0 | 0.00 | 0.00 | 0.00 | 93 | 1011.2 |
| 20260506123031 | 75 | 134 | 6.0 | 9.0 | 0.00 | 0.00 | 0.00 | 93 | 1011.0 |
| 20260506121528 | 75 | 142 | 6.0 | 9.0 | 0.00 | 0.00 | 0.00 | 93 | 1011.0 |
| 20260506120041 | 75 | 128 | 7.0 | 9.0 | 0.00 | 0.00 | 0.00 | 93 | 1010.9 |
| 20260506114535 | 75 | 136 | 6.0 | 8.0 | 0.00 | 0.00 | 0.00 | 93 | 1010.8 |
| 20260506113042 | 75 | 132 | 6.0 | 8.0 | 0.00 | 0.00 | 0.00 | 92 | 1010.6 |
| 20260506111545 | 75 | 127 | 5.0 | 8.0 | 0.00 | 0.00 | 0.00 | 92 | 1010.4 |
| 20260506110047 | 75 | 119 | 5.0 | 8.0 | 0.00 | 0.00 | 0.00 | 92 | 1010.3 |
| 20260506104559 | 74 | 126 | 5.0 | 7.0 | 0.00 | 0.00 | 0.00 | 92 | 1010.3 |
| 20260506103114 | 74 | 119 | 4.0 | 6.0 | 0.00 | 0.00 | 0.00 | 92 | 1010.5 |
| 20260506103003 | 74 | 119 | 4.0 | 6.0 | 0.00 | 0.00 | 0.00 | 92 | 1010.4 |
| 20260506101509 | 74 | 121 | 4.0 | 6.0 | 0.00 | 0.00 | 0.00 | 92 | 1010.3 |
| 20260506100010 | 74 | 123 | 3.0 | 6.0 | 0.00 | 0.00 | 0.00 | 91 | 1010.3 |
| 20260506094519 | 74 | 121 | 4.0 | 5.0 | 0.00 | 0.00 | 0.00 | 91 | 1010.2 |
| 20260506093019 | 74 | 121 | 4.0 | 5.0 | 0.00 | 0.00 | 0.00 | 92 | 1010.0 |
| 20260506091523 | 75 | 122 | 4.0 | 6.0 | 0.00 | 0.00 | 0.00 | 91 | 1010.1 |
| 20260506090044 | 75 | 130 | 6.0 | 9.0 | 0.00 | 0.00 | 0.00 | 92 | 1010.0 |
| 20260506084541 | 75 | 132 | 6.0 | 8.0 | 0.00 | 0.00 | 0.00 | 92 | 1010.1 |
| 20260506083037 | 75 | 117 | 6.0 | 9.0 | 0.00 | 0.00 | 0.00 | 92 | 1010.2 |
| 20260506081550 | 75 | 130 | 6.0 | 9.0 | 0.00 | 0.00 | 0.00 | 91 | 1010.2 |
| 20260506073059 | 76 | 132 | 7.0 | 9.0 | 0.00 | 0.00 | 0.00 | 91 | 1010.7 |
| 20260506071556 | 77 | 131 | 7.0 | 11.0 | 0.00 | 0.00 | 0.00 | 91 | 1011.0 |
| 20260506061535 | 77 | 141 | 7.0 | 12.0 | 0.00 | 0.00 | 0.00 | 90 | 1011.1 |
| 20260506044524 | 77 | 143 | 8.0 | 11.0 | 0.00 | 0.00 | 0.00 | 90 | 1011.0 |
| 20260506043036 | 77 | 139 | 7.0 | 12.0 | 0.00 | 0.00 | 0.00 | 90 | 1010.9 |
| 20260506041535 | 77 | 148 | 8.0 | 13.0 | 0.00 | 0.00 | 0.00 | 90 | 1010.8 |
| 20260506040043 | 76 | 143 | 7.0 | 11.0 | 0.00 | 0.00 | 0.00 | 90 | 1010.8 |
| 20260506034551 | 77 | 146 | 6.0 | 10.0 | 0.00 | 0.00 | 0.00 | 90 | 1010.7 |
| 20260506033057 | 77 | 142 | 9.0 | 14.0 | 0.00 | 0.00 | 0.00 | 90 | 1010.6 |
| 20260506031558 | 77 | 150 | 8.0 | 11.0 | 0.00 | 0.00 | 0.00 | 89 | 1010.5 |
| 20260506030004 | 77 | 162 | 7.0 | 11.0 | 0.00 | 0.00 | 0.00 | 89 | 1010.5 |
| 20260506024525 | 77 | 146 | 7.0 | 11.0 | 0.00 | 0.00 | 0.00 | 89 | 1010.3 |
| 20260506023022 | 78 | 151 | 8.0 | 13.0 | 0.00 | 0.00 | 0.00 | 88 | 1010.2 |
| 20260506021532 | 78 | 135 | 8.0 | 14.0 | 0.00 | 0.00 | 0.00 | 88 | 1009.9 |
| 20260506020037 | 78 | 164 | 8.0 | 13.0 | 0.00 | 0.00 | 0.00 | 88 | 1009.8 |
| 20260506014542 | 78 | 151 | 11.0 | 14.0 | 0.00 | 0.00 | 0.00 | 88 | 1009.6 |
| 20260506013054 | 78 | 135 | 8.0 | 14.0 | 0.00 | 0.00 | 0.00 | 88 | 1009.3 |
| 20260506011604 | 78 | 129 | 7.0 | 10.0 | 0.00 | 0.00 | 0.00 | 87 | 1009.2 |